• In Latvia
  • List of Countries
  • For 7 days
  • Water Temperature
  • Satellite Maps
  • Weather Map
  • Weather Widgets
  • user-avatar
    Login

    Hourly Weather Debalcevo

    Today, 23 September, Sunday

    Time Temperature Precipitation Wind Pressure Humidity
    00:00 +19°C° 0 mm 3 mps 735 mmHg 54%
    01:00 +18°C° 0 mm 3 mps 735 mmHg 56%
    02:00 +18°C° 0 mm 3 mps 735 mmHg 57%
    03:00 +17°C° 0 mm 2 mps 734 mmHg 60%
    04:00 +17°C° 0 mm 2 mps 734 mmHg 61%
    05:00 +17°C° 0 mm 3 mps 734 mmHg 62%
    06:00 +16°C° 0 mm 3 mps 733 mmHg 63%
    07:00 +18°C° 0 mm 3 mps 733 mmHg 59%
    08:00 +20°C° 0 mm 3 mps 733 mmHg 55%
    09:00 +21°C° 0 mm 4 mps 733 mmHg 50%
    10:00 +23°C° 0 mm 4 mps 733 mmHg 45%
    11:00 +26°C° 0 mm 5 mps 733 mmHg 40%
    12:00 +27°C° 0 mm 5 mps 733 mmHg 35%
    13:00 +26°C° 0.1 mm 5 mps 733 mmHg 41%
    14:00 +23°C° 0.1 mm 6 mps 733 mmHg 46%
    15:00 +20°C° 0 mm 7 mps 733 mmHg 57%
    16:00 +19°C° 1.2 mm 6 mps 733 mmHg 64%
    17:00 +16°C° 1.2 mm 5 mps 733 mmHg 72%
    18:00 +14°C° 1.2 mm 4 mps 734 mmHg 80%
    19:00 +13°C° 0 mm 4 mps 734 mmHg 79%
    20:00 +13°C° 0 mm 4 mps 734 mmHg 78%
    21:00 +12°C° 0 mm 4 mps 735 mmHg 78%
    22:00 +11°C° 0 mm 4 mps 735 mmHg 78%
    23:00 +11°C° 0 mm 3 mps 735 mmHg 79%

    Tomorrow, 24 September, Monday

    Time Temperature Precipitation Wind Pressure Humidity
    00:00 +10°C° 0 mm 2 mps 736 mmHg 79%
    01:00 +10°C° 0 mm 2 mps 736 mmHg 80%
    02:00 +9°C° 0 mm 2 mps 736 mmHg 80%
    03:00 +10°C° 0 mm 1 mps 736 mmHg 81%
    04:00 +10°C° 0 mm 1 mps 736 mmHg 80%
    05:00 +10°C° 0 mm 1 mps 736 mmHg 80%
    06:00 +10°C° 0 mm 1 mps 736 mmHg 80%
    07:00 +11°C° 0 mm 1 mps 736 mmHg 73%
    08:00 +12°C° 0 mm 2 mps 736 mmHg 66%
    09:00 +13°C° 0 mm 3 mps 736 mmHg 59%
    10:00 +14°C° 0 mm 3 mps 736 mmHg 52%
    11:00 +17°C° 0 mm 4 mps 735 mmHg 45%
    12:00 +18°C° 0 mm 4 mps 735 mmHg 38%
    13:00 +19°C° 0 mm 5 mps 734 mmHg 35%
    14:00 +20°C° 0 mm 5 mps 734 mmHg 33%
    15:00 +21°C° 0 mm 6 mps 733 mmHg 30%
    16:00 +20°C° 0 mm 5 mps 732 mmHg 32%
    17:00 +19°C° 0 mm 5 mps 732 mmHg 35%
    18:00 +17°C° 0 mm 5 mps 731 mmHg 37%
    19:00 +17°C° 0 mm 5 mps 731 mmHg 43%
    20:00 +17°C° 0 mm 5 mps 730 mmHg 49%
    21:00 +16°C° 0 mm 6 mps 729 mmHg 55%
    22:00 +16°C° 0 mm 6 mps 729 mmHg 61%
    23:00 +17°C° 0 mm 6 mps 729 mmHg 67%

    Day after tomorrow, 25 September, Tuesday

    Time Temperature Precipitation Wind Pressure Humidity
    00:00 +17°C° 0 mm 7 mps 729 mmHg 73%
    01:00 +16°C° 0.2 mm 7 mps 729 mmHg 76%
    02:00 +14°C° 0.2 mm 6 mps 729 mmHg 78%
    03:00 +13°C° 0.2 mm 6 mps 729 mmHg 81%
    04:00 +11°C° 1.1 mm 6 mps 729 mmHg 81%
    05:00 +10°C° 1.1 mm 6 mps 730 mmHg 81%
    06:00 +9°C° 1.1 mm 6 mps 730 mmHg 81%
    07:00 +9°C° 0.5 mm 6 mps 730 mmHg 77%
    08:00 +10°C° 0.5 mm 6 mps 731 mmHg 73%
    09:00 +10°C° 0.5 mm 5 mps 732 mmHg 70%
    10:00 +12°C° 0 mm 5 mps 732 mmHg 63%
    11:00 +13°C° 0 mm 5 mps 732 mmHg 57%
    12:00 +15°C° 0 mm 5 mps 733 mmHg 51%
    13:00 +15°C° 0 mm 6 mps 733 mmHg 48%
    14:00 +15°C° 0 mm 6 mps 733 mmHg 45%
    15:00 +15°C° 0 mm 7 mps 733 mmHg 43%
    16:00 +14°C° 0 mm 6 mps 733 mmHg 45%
    17:00 +13°C° 0 mm 6 mps 733 mmHg 48%
    18:00 +13°C° 0 mm 5 mps 734 mmHg 50%
    19:00 +12°C° 0 mm 5 mps 734 mmHg 54%
    20:00 +11°C° 0 mm 4 mps 735 mmHg 58%
    21:00 +10°C° 0 mm 3 mps 735 mmHg 62%
    22:00 +9°C° 0 mm 3 mps 736 mmHg 66%
    23:00 +9°C° 0 mm 3 mps 736 mmHg 70%

    26 September, Wednesday

    Time Temperature Precipitation Wind Pressure Humidity
    00:00 +8°C° 0 mm 3 mps 737 mmHg 74%
    01:00 +8°C° 0 mm 3 mps 737 mmHg 75%
    02:00 +8°C° 0 mm 3 mps 738 mmHg 76%
    03:00 +7°C° 0 mm 3 mps 738 mmHg 78%
    04:00 +7°C° 0 mm 3 mps 739 mmHg 78%
    05:00 +7°C° 0 mm 3 mps 739 mmHg 78%
    06:00 +5°C° 0 mm 3 mps 739 mmHg 79%
    07:00 +7°C° 0 mm 3 mps 740 mmHg 72%
    08:00 +7°C° 0 mm 4 mps 741 mmHg 66%
    09:00 +7°C° 0 mm 4 mps 741 mmHg 59%
    10:00 +8°C° 0 mm 4 mps 741 mmHg 54%
    11:00 +10°C° 0 mm 4 mps 742 mmHg 48%
    12:00 +12°C° 0 mm 4 mps 742 mmHg 42%
    13:00 +12°C° 0 mm 4 mps 742 mmHg 41%
    14:00 +12°C° 0 mm 4 mps 742 mmHg 40%
    15:00 +12°C° 0 mm 4 mps 742 mmHg 39%
    16:00 +12°C° 0 mm 3 mps 742 mmHg 40%
    17:00 +11°C° 0 mm 3 mps 742 mmHg 41%
    18:00 +12°C° 0 mm 2 mps 742 mmHg 43%
    19:00 +10°C° 0 mm 2 mps 742 mmHg 45%
    20:00 +9°C° 0 mm 2 mps 743 mmHg 46%
    21:00 +9°C° 0 mm 2 mps 743 mmHg 48%
    22:00 +8°C° 0 mm 2 mps 743 mmHg 50%
    23:00 +8°C° 0 mm 2 mps 743 mmHg 52%

    27 September, Thursday

    Time Temperature Precipitation Wind Pressure Humidity
    00:00 +8°C° 0 mm 2 mps 743 mmHg 54%
    01:00 +7°C° 0 mm 2 mps 743 mmHg 56%
    02:00 +6°C° 0 mm 2 mps 743 mmHg 59%
    03:00 +6°C° 0 mm 2 mps 743 mmHg 61%
    04:00 +5°C° 0 mm 2 mps 743 mmHg 62%
    05:00 +6°C° 0 mm 1 mps 743 mmHg 63%
    06:00 +6°C° 0 mm 1 mps 743 mmHg 64%
    07:00 +6°C° 0 mm 2 mps 743 mmHg 58%
    08:00 +7°C° 0 mm 2 mps 743 mmHg 53%
    09:00 +9°C° 0 mm 2 mps 743 mmHg 47%
    10:00 +10°C° 0 mm 3 mps 743 mmHg 42%
    11:00 +11°C° 0 mm 4 mps 742 mmHg 37%
    12:00 +12°C° 0 mm 5 mps 742 mmHg 32%
    13:00 +13°C° 0 mm 5 mps 742 mmHg 30%
    14:00 +13°C° 0 mm 5 mps 741 mmHg 28%
    15:00 +14°C° 0 mm 6 mps 741 mmHg 27%
    16:00 +13°C° 0 mm 5 mps 740 mmHg 29%
    17:00 +13°C° 0 mm 4 mps 740 mmHg 30%
    18:00 +12°C° 0 mm 4 mps 740 mmHg 32%
    19:00 +11°C° 0 mm 4 mps 740 mmHg 34%
    20:00 +11°C° 0 mm 4 mps 740 mmHg 35%
    21:00 +10°C° 0 mm 3 mps 740 mmHg 37%
    22:00 +10°C° 0 mm 4 mps 740 mmHg 38%
    23:00 +10°C° 0 mm 4 mps 740 mmHg 39%

    28 September, Friday

    Time Temperature Precipitation Wind Pressure Humidity
    00:00 +8°C° 0 mm 4 mps 739 mmHg 39%
    01:00 +9°C° 0 mm 3 mps 739 mmHg 40%
    02:00 +9°C° 0 mm 3 mps 739 mmHg 42%
    03:00 +9°C° 0 mm 3 mps 739 mmHg 43%
    04:00 +9°C° 0 mm 3 mps 739 mmHg 44%
    05:00 +8°C° 0 mm 3 mps 738 mmHg 46%
    06:00 +8°C° 0 mm 2 mps 738 mmHg 47%
    07:00 +10°C° 0 mm 3 mps 738 mmHg 45%
    08:00 +11°C° 0 mm 3 mps 738 mmHg 43%
    09:00 +12°C° 0 mm 3 mps 739 mmHg 41%
    10:00 +14°C° 0 mm 4 mps 738 mmHg 39%
    11:00 +17°C° 0 mm 4 mps 738 mmHg 37%
    12:00 +19°C° 0 mm 4 mps 738 mmHg 35%
    13:00 +20°C° 0 mm 4 mps 738 mmHg 36%
    14:00 +20°C° 0 mm 4 mps 737 mmHg 36%
    15:00 +21°C° 0 mm 4 mps 737 mmHg 36%
    16:00 +20°C° 0 mm 3 mps 737 mmHg 39%
    17:00 +19°C° 0 mm 3 mps 736 mmHg 42%
    18:00 +18°C° 0 mm 3 mps 736 mmHg 45%
    19:00 +17°C° 0 mm 2 mps 736 mmHg 47%
    20:00 +16°C° 0 mm 2 mps 736 mmHg 49%
    21:00 +15°C° 0 mm 2 mps 736 mmHg 51%
    22:00 +15°C° 0 mm 2 mps 736 mmHg 53%
    23:00 +14°C° 0 mm 2 mps 736 mmHg 54%
    Show more